Regional Weather Roundup
Issued by NWS

Home | Current Version | Previous Version | Text Only | Print | Product List | Glossary On
Versions: 1 2 3 4 5 6 7 8 9 10 11 12 13 14 15 16 17 18 19 20 21 22 23 24 25 26 27 28 29 30 31 32 33 34 35 36 37 38 39 40 41 42 43 44 45 46 47 48 49 50
000
ASUS44 KBMX 271310
RWRAL

ALABAMA REGIONAL WEATHER ROUNDUP
NATIONAL WEATHER SERVICE BIRMINGHAM AL
700 AM CST SAT DEC 27 2014

NOTE: "FAIR" INDICATES FEW OR NO CLOUDS BELOW 12,000 FEET
WITH NO SIGNIFICANT WEATHER AND/OR OBSTRUCTIONS TO VISIBILITY.

THE REMARK "TC" DENOTES TEMPERATURE IN DEGREES CELSIUS.

ALZ001>011-014-016>018-020-271400-
NORTH ALABAMA

CITY           SKY/WX    TMP DP  RH WIND       PRES   REMARKS
MUSCLE SHOALS  CLOUDY    49  41  74 SE6       30.25R
HUNTSVILLE     CLOUDY    49  41  74 CALM      30.26R
DECATUR        CLOUDY    49  40  71 SE5       30.27R
HALEYVILLE     CLOUDY    47  40  76 S7        30.27R
GADSDEN        MOCLDY    45  37  76 CALM      30.29R
$$

ALZ012-013-022-023-030>036-040>044-271400-
WEST CENTRAL ALABAMA

CITY           SKY/WX    TMP DP  RH WIND       PRES   REMARKS
TUSCALOOSA     RAIN      48  45  89 W5        30.30R FOG
$$

ALZ015-024>027-033>036-040>044-271400-
CENTRAL ALABAMA

CITY           SKY/WX    TMP DP  RH WIND       PRES   REMARKS
BIRMINGHAM     LGT RAIN  48  42  80 SE6       30.31R
MONTGOMERY     CLOUDY    47  40  76 NE3       30.29R
SHELBY CO ARPT LGT RAIN  45  43  93 E3        30.28S
MAXWELL AFB    CLOUDY    46  40  80 NE7       30.29R
GREENVILLE     NOT AVBL
$$

ALZ019-021-028-029-037-038-045>048-271400-
EAST CENTRAL ALABAMA

CITY           SKY/WX    TMP DP  RH WIND       PRES   REMARKS
ANNISTON       CLOUDY    44  38  79 E5        30.30R
ALEXANDER CITY CLOUDY    43  37  79 CALM      30.30R
AUBURN         MOCLDY    45  34  65 E5        30.32R
$$

ALZ051>064-271400-
SOUTHWEST ALABAMA

CITY           SKY/WX    TMP DP  RH WIND       PRES   REMARKS
MOBILE         MOCLDY    56  53  90 E6        30.21R
BROOKLEY FIELD CLOUDY    57  54  89 E9        30.21R
EVERGREEN      CLOUDY    51  44  77 S3        30.26R
$$

ALZ049-050-065>069-271400-
SOUTHEAST ALABAMA

CITY           SKY/WX    TMP DP  RH WIND       PRES   REMARKS
DOTHAN         MOCLDY    47  42  83 SE3       30.30R
OZARK          MOCLDY    45  40  82 E5        30.26R
TROY           CLOUDY    48  41  76 CALM      30.28R
EUFAULA        FAIR      38  37  97 CALM      30.28R
$$



USA.gov is the U.S. government's official web portal to all federal, state and local government web resources and services.